Powrót do katalogu

STARLINK-34028

AktywnyŁącznośćVLEO
NORAD 63973·PAYLOAD·🇺🇸 United States

Wystrzelony May 13, 2025 z Cape Canaveral Space Force Station

Loading…

Następne Przeloty (najbliższe 24 godziny)

TLE

ŚwieżeSource: CelesTrak SupGP

Epoka: Sep 14, 2026, 22:37 UTC

1 63973C 25099X   26257.94284722 -.00038508  00000+0 -13945-2 0  2579
2 63973  43.0024 184.1807 0001262 267.6094 230.3211 15.27603976    16

Śledź STARLINK-34028 w czasie rzeczywistym z AllMySat

Download on the App Store